This demonstration page uses our WeatherBlox Daily Observations layout. Learn more.

Left ArrowRight Arrow

38.20091, -84.87328

Hourly Observations for October 18, 2021

Temp ( °F °C ) Dew Point ( °F °C ) Humidity (%) Winds ( mph kmh ) Pressure ( in mb ) Visibility ( mi km ) Precip ( " mm )
12:53 am 00:53 Clear 46 7.8 43 6.1 89 89 N N/A 30.17 1022 10 16 N/A
1:53 am 01:53 Clear 45 7.2 42 5.6 90 90 WSW 3 6 30.17 1022 10 16 N/A
2:53 am 02:53 Clear 44 6.7 41 5 89 89 N N/A 30.16 1021 10 16 N/A
3:53 am 03:53 Clear 42 5.6 40 4.4 92 92 N N/A 30.16 1022 10 16 N/A
4:53 am 04:53 Clear 42 5.6 40 4.4 92 92 N N/A 30.16 1021 10 16 N/A
5:53 am 05:53 Clear 42 5.6 40 4.4 92 92 N N/A 30.17 1022 10 16 N/A
6:53 am 06:53 Clear 40 4.4 38 3.3 93 93 N N/A 30.19 1022 10 16 N/A
7:53 am 07:53 Sunny 40 4.4 38 3.3 93 93 N N/A 30.19 1022 10 16 N/A
8:53 am 08:53 Sunny 45 7.2 43 6.1 93 93 N N/A 30.21 1023 10 16 N/A
9:53 am 09:53 Sunny 52 11.1 46 7.8 80 80 SW 6 9 30.22 1023 10 16 N/A
10:53 am 10:53 Sunny 59 15 48 8.9 67 67 VRB 3 6 30.22 1023 10 16 N/A
11:53 am 11:53 Sunny 64 17.8 46 7.8 52 52 SSW 5 7 30.21 1023 10 16 N/A
12:53 pm 12:53 Sunny 68 20 42 5.6 39 39 VRB 7 11 30.20 1023 10 16 N/A
1:53 pm 13:53 Sunny 69 20.6 39 3.9 33 33 W 3 6 30.17 1022 10 16 N/A
2:53 pm 14:53 Sunny 70 21.1 40 4.4 34 34 W 8 13 30.16 1021 10 16 N/A
3:53 pm 15:53 Sunny 71 21.7 42 5.6 35 35 VRB 6 9 30.14 1021 10 16 N/A
4:53 pm 16:53 Sunny 70 21.1 41 5 35 35 VRB 7 11 30.14 1021 10 16 N/A
5:53 pm 17:53 Sunny 69 20.6 42 5.6 38 38 W 5 7 30.14 1021 10 16 N/A
6:53 pm 18:53 Sunny 61 16.1 49 9.4 65 65 WSW 3 6 30.15 1021 10 16 N/A
7:53 pm 19:53 Clear 54 12.2 48 8.9 80 80 N N/A 30.16 1021 10 16 N/A
8:53 pm 20:53 Clear 52 11.1 48 8.9 86 86 N N/A 30.16 1022 10 16 N/A
9:53 pm 21:53 Clear 51 10.6 47 8.3 86 86 N N/A 30.17 1022 10 16 N/A
10:53 pm 22:53 Clear 49 9.4 46 7.8 90 90 N N/A 30.17 1022 10 16 N/A
11:53 pm 23:53 Clear 47 8.3 45 7.2 93 93 N N/A 30.17 1022 10 16 N/A

Powered by AerisWeather